Regional Weather Roundup
Issued by NWS

Home | Current Version | Previous Version | Text Only | Print | Product List | Glossary Off
Versions: 1 2 3 4 5 6 7 8 9 10 11 12 13 14 15 16 17 18 19 20 21 22 23 24 25 26 27 28 29 30 31 32 33 34 35 36 37 38 39 40 41 42 43 44 45 46 47 48 49 50

000
ASUS43 KMKX 231111
RWRWI

WISCONSIN REGIONAL WEATHER ROUNDUP
NATIONAL WEATHER SERVICE MILWAUKEE/SULLIVAN WI
600 AM CDT WED AUG 23 2017

NOTE: "FAIR" INDICATES FEW OR NO CLOUDS BELOW 12,000 FEET WITH NO
SIGNIFICANT WEATHER AND/OR OBSTRUCTIONS TO VISIBILITY.

WIZ001-002-006>008-014>016-023>028-231200-
NORTHWEST WISCONSIN

CITY           SKY/WX    TMP DP  RH WIND       PRES   REMARKS
SUPERIOR ARPT    N/A     51  49  91 CALM      30.05R
ASHLAND        CLOUDY    52  51  97 S5        30.03R
HAYWARD        PTCLDY    45  43  93 CALM      30.05R
SIREN          CLEAR     49  48  95 CALM      30.07R
CUMBERLAND     CLEAR     50  46  87 W5        30.06S
RICE LAKE      CLEAR     49  48  97 CALM      30.07R
CHETEK         CLEAR     51  50  95 NW3       30.06R
LADYSMITH      CLEAR     53  51  94 NW5       30.05S
EAU CLAIRE     CLEAR     51  48  89 CALM      30.05R
MENOMONIE      CLEAR     54  50  89 W6        30.06R
NEW RICHMOND   CLEAR     50  48  94 CALM      30.08R
OSCEOLA        CLEAR     47  47 100 CALM      30.11R
$$

WIZ003>005-009-010-017-018-231200-
NORTH CENTRAL WISCONSIN

CITY           SKY/WX    TMP DP  RH WIND       PRES   REMARKS
MANITOWISH WTR MOCLDY    52  52 100 NW5       30.01R
ARBOR VITAE    MOCLDY    57  55  94 NW8       30.00S
WOODRUFF       MOCLDY    57  55  94 NW8       30.00S
RHINELANDER    CLOUDY    52  52 100 W7        30.01R
EAGLE RIVER    DRIZZLE   54  53  98 W6        29.99R
LAND O LAKES   MOCLDY    54  51  89 NW5       30.00S
PHILLIPS       CLEAR     48  48 100 CALM      30.02S
TOMAHAWK       FOG       44  43  97 CALM      30.02S VSB 1/2
MEDFORD        CLEAR     47  46  99 CALM      30.03R
MERRILL        CLEAR     46  46 100 CALM      30.02R FOG
$$

WIZ029-030-035-036-043>047-231200-
CENTRAL WISCONSIN

CITY           SKY/WX    TMP DP  RH WIND       PRES   REMARKS
WAUSAU         PTCLDY    53  50  89 NW7       30.01R
MOSINEE        PTCLDY    50  48  93 W5        30.02S
MARSHFIELD     CLEAR     50  47  89 NW7       30.02S
STEVENS POINT  CLEAR     51  50  96 W6        30.02R
WAUPACA        CLEAR     55  51  85 W5        30.01R
WAUTOMA        CLEAR     52  49  89 W6        30.03R
WISC RAPIDS    CLEAR     51  48  89 NW5       30.04R
CAMP DOUGLAS   PTCLDY    48  46  93 W6        30.04R
$$

WIZ011>013-019>022-031-037>040-048>050-231200-
NORTHEAST WISCONSIN

CITY           SKY/WX    TMP DP  RH WIND       PRES   REMARKS
ANTIGO         CLEAR     49  49 100 W6        30.01R
SHAWANO        CLEAR     55  51  89 W7        29.98R
OCONTO         CLEAR     53  51  92 W6        29.96R
STURGEON BAY   CLEAR     58  54  86 NW9       29.97R
GREEN BAY      PTCLDY    52  52 100 W8        29.98R
MANITOWOC      CLEAR     56  50  80 NW8       29.97R
APPLETON       PTCLDY    52  48  87 W9        29.97S
CLINTONVILLE   CLEAR     54  50  87 NW8       29.99S
OSHKOSH        CLEAR     54  49  83 W7        29.99R
$$

WIZ032>034-041-042-053>061-231200-
SOUTHWEST WISCONSIN

CITY           SKY/WX    TMP DP  RH WIND       PRES   REMARKS
LA CROSSE      CLEAR     56  53  90 SE3       30.06R
SPARTA         CLEAR     44  44  99 E3        30.06S
VIROQUA        CLEAR     51  50  95 W3        30.07R
BOSCOBEL       CLEAR     52  50  93 SW3       30.07R
PRAIRIE DU CHI CLEAR     54  47  78 W3        30.08R
PLATTEVILLE    CLEAR     51  51 100 W5        30.07S
$$

WIZ056-057-062-063-064-067-068-231200-
SOUTH CENTRAL WISCONSIN

CITY           SKY/WX    TMP DP  RH WIND       PRES   REMARKS
REEDSBURG      CLEAR     49  49 100 CALM      30.04S
BARABOO/DELLS  CLEAR     54  48  82 W3        30.04S
LONE ROCK      CLEAR     50  49  96 W3        30.06R
MINERAL POINT  CLEAR     54  52  94 W5        30.07R
MADISON        CLEAR     55  51  86 NW3       30.03R
MIDDLETON      CLEAR     55  51  87 W7        30.05R
WATERTOWN      CLEAR     54  53  95 W5        30.02R
MONROE         CLEAR     54  48  82 W10       30.05S
JANESVILLE     CLEAR     54  54 100 W3        30.04R
$$

WIZ051-052-058>065-066-070>072-231200-
SOUTHEAST WISCONSIN

CITY           SKY/WX    TMP DP  RH WIND       PRES   REMARKS
MILWAUKEE      CLEAR     61  51  70 W8        30.00R
WAUKESHA       CLEAR     54  50  87 W10       30.02R
MILWAUKEE/TIMM PTCLDY    55  46  71 W8        30.01R
RACINE         CLEAR     57  52  83 W6        30.02R
KENOSHA        CLEAR     55  50  83 W7        30.01R
FOND DU LAC    CLEAR     56  48  74 W6        30.01R
SHEBOYGAN      CLEAR     56  53  90 W6        29.98R
WEST BEND      CLEAR     55  50  82 W7        30.00R
JUNEAU         CLEAR     54  49  86 CALM      30.03R
$$

LSZ147-162-231200-
LAKE SUPERIOR

STATION/POSITION TIME  TEMP    WIND        PRES    WAVE
                       AIR SEA DIR/SP/G            HT/PER
                 (UTC) (F)     (DEG/KT/KT) (MB)    (FT/S)
W MID LAKE BUOY  1050   58 59  360/ 10/ 12 1015.1R   2/ 4
DEVILS ISLAND    1100   59     340/ 13/ 15 1016.4R
SAXON HARBOR     1030   55     190/  5/  7 1015.6S
$$

LMZ867-665-643>646-231200-
LAKE MICHIGAN

STATION/POSITION TIME  TEMP    WIND        PRES    WAVE
                       AIR SEA DIR/SP/G            HT/PER
                 (UTC) (F)     (DEG/KT/KT) (MB)    (FT/S)
S GREEN BAY BUOY 1100   60 70  300/ 16/ 21 1014.5
N MID LAKE BUOY  1050   61 66  310/ 16/ 19 1013.2R   2/ 4
NORTHPORT PIER   1040   61     320/ 19/ 24 1013.2R
KEWAUNEE LAKESHO 1042   56     310/  3/  6 1013.5R
SHEBOYGAN LAKESH 1100   59     280/  7/  8 1015.0R
PORT WASHINGTON  1040   60     290/  4/  8 1016.3R
ATWATER BUOY     1009   62 67  270/ 14/ 16 1015.3S
MILWAUKEE LAKESH 1050   61     290/  9/ 12   N/A
S MID LAKE BUOY  1050   67 71  330/ 17/ 21 1014.7R   4/ 4
KENOSHA   LAKESH 1100   60     280/ 10/ 14 1015.9
$$

TC  - TEMPERATURE IN CELSIUS
VSB - VISIBILITY IN STATUTE MILES
WCI - WIND CHILL INDEX
HX  - HEAT INDEX





USA.gov is the U.S. government's official web portal to all federal, state and local government web resources and services.